DLH8PZ LKPR-LROP

Flight info

Callsign DLH8PZ
Flight time 1h 24m
Altitude 39000
Route VOZ DCT LIKSA DCT PEPIK DCT DEGET DCT EKNAB DCT LAMIT DCT TOSVI
Aircraft A346/H-SDE2E3FGHIJ3J4J5M1RWXY/LB1D1

Departure

Time 2026-04-30 20:37
Airport Václav Havel Airport Prague (LKPR)

Arrival

Time 2026-04-30 22:01
Airport Bucharest Henri Coandă International Airport (LROP)
Time Latitude Longitude Altitude Speed Heading
2026-04-30 20:16 50.10617 14.26195 1180 ft 0 kts 34°
2026-04-30 20:26 50.10602 14.26182 1174 ft 4 kts 15°
2026-04-30 20:26 50.10582 14.26182 1182 ft 3 kts 344°
2026-04-30 20:27 50.10542 14.26216 1178 ft 4 kts 307°
2026-04-30 20:27 50.10526 14.26278 1177 ft 0 kts 287°
2026-04-30 20:30 50.10536 14.26207 1179 ft 9 kts 277°
2026-04-30 20:30 50.10494 14.25809 1180 ft 15 kts 259°
2026-04-30 20:31 50.10420 14.25203 1176 ft 25 kts 259°
2026-04-30 20:32 50.10328 14.24483 1173 ft 18 kts 259°
2026-04-30 20:32 50.10285 14.24135 1176 ft 13 kts 259°
2026-04-30 20:33 50.10268 14.23999 1176 ft 13 kts 259°
2026-04-30 20:33 50.10232 14.23715 1188 ft 13 kts 259°
2026-04-30 20:33 50.10216 14.23588 1199 ft 11 kts 259°
2026-04-30 20:34 50.10162 14.23319 1206 ft 14 kts 247°
2026-04-30 20:34 50.10078 14.23037 1212 ft 16 kts 244°
2026-04-30 20:35 50.10038 14.22863 1214 ft 18 kts 270°
2026-04-30 20:35 50.10117 14.22720 1212 ft 15 kts 337°
2026-04-30 20:35 50.10200 14.22712 1212 ft 4 kts 47°
2026-04-30 20:36 50.10223 14.22772 1211 ft 9 kts 64°
2026-04-30 20:36 50.10341 14.23161 1202 ft 76 kts 65°
2026-04-30 20:36 50.11153 14.25887 1230 ft 185 kts 64°
2026-04-30 20:37 50.11694 14.27735 1901 ft 186 kts 64°
2026-04-30 20:37 50.12234 14.29515 2851 ft 177 kts 63°
2026-04-30 20:37 50.12761 14.31245 3592 ft 182 kts 64°
2026-04-30 20:37 50.13323 14.33097 4016 ft 197 kts 64°
2026-04-30 20:38 50.13902 14.35129 4431 ft 214 kts 72°
2026-04-30 20:38 50.13849 14.37501 4763 ft 239 kts 112°
2026-04-30 20:38 50.12826 14.39712 5279 ft 259 kts 131°
2026-04-30 20:39 50.10231 14.43686 7018 ft 266 kts 132°
2026-04-30 20:39 50.08892 14.45790 7941 ft 268 kts 130°
2026-04-30 20:39 50.07588 14.47909 8819 ft 273 kts 129°
2026-04-30 20:40 50.04947 14.52322 10598 ft 283 kts 128°
2026-04-30 20:40 50.03594 14.54621 11305 ft 295 kts 127°
2026-04-30 20:40 50.02185 14.57033 11816 ft 313 kts 127°
2026-04-30 20:41 49.99087 14.62333 12818 ft 349 kts 128°
2026-04-30 20:41 49.97403 14.65205 13286 ft 368 kts 128°
2026-04-30 20:41 49.95644 14.68203 13800 ft 384 kts 128°
2026-04-30 20:41 49.93822 14.71294 14609 ft 390 kts 128°
2026-04-30 20:42 49.91977 14.74415 15421 ft 394 kts 128°
2026-04-30 20:42 49.90119 14.77589 16250 ft 397 kts 126°
2026-04-30 20:42 49.86834 14.84521 17895 ft 402 kts 120°
2026-04-30 20:43 49.85213 14.88107 18687 ft 406 kts 120°
2026-04-30 20:43 49.83558 14.91734 19397 ft 411 kts 120°
2026-04-30 20:43 49.81879 14.95374 20099 ft 415 kts 120°
2026-04-30 20:44 49.78485 15.02664 21507 ft 422 kts 119°
2026-04-30 20:44 49.76750 15.06366 22210 ft 427 kts 119°
2026-04-30 20:44 49.73189 15.13933 23632 ft 434 kts 118°
2026-04-30 20:45 49.69595 15.21554 24773 ft 442 kts 118°
2026-04-30 20:45 49.67777 15.25398 25358 ft 444 kts 118°
2026-04-30 20:45 49.65943 15.29268 25942 ft 447 kts 118°
2026-04-30 20:46 49.60394 15.40938 27660 ft 455 kts 117°
2026-04-30 20:46 49.58517 15.44870 28294 ft 457 kts 117°
2026-04-30 20:47 49.54722 15.52800 29578 ft 457 kts 117°
2026-04-30 20:47 49.52839 15.56722 30469 ft 452 kts 116°
2026-04-30 20:48 49.49118 15.64465 31841 ft 447 kts 116°
2026-04-30 20:48 49.47295 15.68261 32401 ft 447 kts 116°
2026-04-30 20:48 49.45438 15.72122 32994 ft 447 kts 116°
2026-04-30 20:48 49.43587 15.75962 33554 ft 447 kts 116°
2026-04-30 20:49 49.41731 15.79805 34137 ft 446 kts 116°
2026-04-30 20:49 49.39882 15.83627 34690 ft 446 kts 116°
2026-04-30 20:49 49.38030 15.87457 35146 ft 446 kts 116°
2026-04-30 20:50 49.34304 15.95148 35899 ft 449 kts 117°
2026-04-30 20:50 49.32430 15.99003 36264 ft 451 kts 117°
2026-04-30 20:50 49.30536 16.02891 36630 ft 452 kts 118°
2026-04-30 20:50 49.28668 16.06722 36977 ft 454 kts 118°
2026-04-30 20:51 49.26746 16.10655 37311 ft 455 kts 119°
2026-04-30 20:51 49.22929 16.18445 37964 ft 459 kts 120°
2026-04-30 20:51 49.21006 16.22364 38217 ft 461 kts 120°
2026-04-30 20:52 49.19095 16.26248 38447 ft 463 kts 120°
2026-04-30 20:52 49.17267 16.29957 38669 ft 465 kts 120°
2026-04-30 20:52 49.13357 16.37874 39127 ft 470 kts 121°
2026-04-30 20:53 49.11375 16.41878 39320 ft 472 kts 121°
2026-04-30 20:53 49.07400 16.49888 39379 ft 474 kts 121°
2026-04-30 20:54 49.01426 16.61892 39395 ft 476 kts 122°
2026-04-30 20:55 48.95375 16.73991 39385 ft 476 kts 122°
2026-04-30 20:55 48.91371 16.81968 39388 ft 477 kts 122°
2026-04-30 20:56 48.85305 16.94016 39401 ft 478 kts 122°
2026-04-30 20:57 48.79241 17.05992 39389 ft 478 kts 122°
2026-04-30 20:57 48.75185 17.14002 39384 ft 478 kts 122°
2026-04-30 20:58 48.69097 17.26008 39380 ft 478 kts 122°
2026-04-30 20:58 48.65028 17.33998 39377 ft 478 kts 122°
2026-04-30 20:59 48.58889 17.46002 39378 ft 480 kts 122°
2026-04-30 21:00 48.50701 17.61934 39380 ft 481 kts 123°
2026-04-30 21:01 48.44509 17.73913 39365 ft 482 kts 123°
2026-04-30 21:02 48.38333 17.85809 39355 ft 482 kts 123°
2026-04-30 21:02 48.34199 17.93749 39370 ft 482 kts 123°
2026-04-30 21:03 48.30069 18.01662 39359 ft 483 kts 124°
2026-04-30 21:03 48.25899 18.09611 39354 ft 483 kts 124°
2026-04-30 21:04 48.21726 18.17546 39351 ft 483 kts 124°
2026-04-30 21:04 48.15499 18.29355 39356 ft 483 kts 124°
2026-04-30 21:05 48.11310 18.37264 39345 ft 483 kts 124°
2026-04-30 21:05 48.07127 18.45139 39345 ft 483 kts 124°
2026-04-30 21:06 48.02930 18.53018 39350 ft 483 kts 124°
2026-04-30 21:06 47.98726 18.60894 39355 ft 484 kts 125°
2026-04-30 21:07 47.94509 18.68767 39348 ft 485 kts 125°
2026-04-30 21:07 47.90263 18.76667 39346 ft 486 kts 125°
2026-04-30 21:08 47.86039 18.84506 39347 ft 485 kts 125°
2026-04-30 21:08 47.81830 18.92297 39368 ft 486 kts 125°
2026-04-30 21:09 47.77652 19.00008 39355 ft 487 kts 126°
2026-04-30 21:09 47.73293 19.08027 39353 ft 487 kts 126°
2026-04-30 21:10 47.69023 19.15859 39354 ft 487 kts 126°
2026-04-30 21:10 47.64752 19.23675 39368 ft 488 kts 126°
2026-04-30 21:11 47.60463 19.31502 39361 ft 489 kts 126°
2026-04-30 21:11 47.56878 19.38022 39359 ft 490 kts 126°
2026-04-30 21:12 47.52564 19.45847 39356 ft 490 kts 126°
2026-04-30 21:12 47.48246 19.53659 39355 ft 490 kts 126°
2026-04-30 21:13 47.43922 19.61465 39359 ft 491 kts 126°
2026-04-30 21:13 47.39580 19.69274 39349 ft 491 kts 126°
2026-04-30 21:14 47.35233 19.77069 39347 ft 491 kts 127°
2026-04-30 21:14 47.30877 19.84862 39342 ft 492 kts 127°
2026-04-30 21:15 47.26507 19.92662 39343 ft 493 kts 127°
2026-04-30 21:15 47.22124 20.00452 39337 ft 493 kts 127°
2026-04-30 21:16 47.17741 20.08223 39332 ft 493 kts 127°
2026-04-30 21:16 47.13358 20.15974 39333 ft 493 kts 127°
2026-04-30 21:17 47.08954 20.23742 39342 ft 493 kts 127°
2026-04-30 21:17 47.04562 20.31463 39338 ft 493 kts 127°
2026-04-30 21:18 47.00152 20.39192 39338 ft 493 kts 127°
2026-04-30 21:18 46.95759 20.46873 39335 ft 493 kts 128°
2026-04-30 21:19 46.91347 20.54564 39333 ft 493 kts 128°
2026-04-30 21:19 46.86928 20.62248 39333 ft 493 kts 128°
2026-04-30 21:20 46.82489 20.69943 39330 ft 493 kts 128°
2026-04-30 21:20 46.78184 20.77386 39340 ft 493 kts 128°
2026-04-30 21:21 46.73741 20.85047 39330 ft 494 kts 128°
2026-04-30 21:22 46.67079 20.96496 39323 ft 495 kts 128°
2026-04-30 21:23 46.58144 21.11768 39315 ft 496 kts 128°
2026-04-30 21:23 46.51421 21.23266 39328 ft 496 kts 127°
2026-04-30 21:24 46.47394 21.31379 39312 ft 494 kts 120°
2026-04-30 21:24 46.43826 21.39887 39320 ft 494 kts 119°
2026-04-30 21:25 46.38471 21.52711 39313 ft 495 kts 119°
2026-04-30 21:26 46.33111 21.65450 39319 ft 495 kts 120°
2026-04-30 21:27 46.27703 21.78231 39317 ft 496 kts 120°
2026-04-30 21:27 46.24092 21.86726 39319 ft 496 kts 120°
2026-04-30 21:28 46.18653 21.99476 39314 ft 496 kts 120°
2026-04-30 21:29 46.13216 22.12169 39321 ft 497 kts 120°
2026-04-30 21:30 46.04084 22.33352 39324 ft 497 kts 121°
2026-04-30 21:31 45.94921 22.54450 39326 ft 500 kts 121°
2026-04-30 21:32 45.89371 22.67153 39337 ft 500 kts 121°
2026-04-30 21:32 45.85654 22.75629 39337 ft 500 kts 121°
2026-04-30 21:33 45.80069 22.88311 39337 ft 501 kts 121°
2026-04-30 21:33 45.78203 22.92535 39085 ft 502 kts 121°
2026-04-30 21:34 45.76335 22.96759 38475 ft 503 kts 121°
2026-04-30 21:34 45.72607 23.05173 37266 ft 502 kts 121°
2026-04-30 21:34 45.70723 23.09410 36666 ft 502 kts 121°
2026-04-30 21:35 45.68834 23.13655 36049 ft 502 kts 121°
2026-04-30 21:35 45.66948 23.17886 35415 ft 503 kts 121°
2026-04-30 21:35 45.65065 23.22105 34805 ft 503 kts 121°
2026-04-30 21:35 45.63173 23.26337 34147 ft 503 kts 121°
2026-04-30 21:36 45.61298 23.30528 33475 ft 503 kts 121°
2026-04-30 21:36 45.59408 23.34744 32819 ft 501 kts 121°
2026-04-30 21:37 45.53790 23.47239 30843 ft 499 kts 121°
2026-04-30 21:37 45.51903 23.51422 30106 ft 499 kts 121°
2026-04-30 21:37 45.50022 23.55580 29327 ft 498 kts 121°
2026-04-30 21:37 45.48147 23.59719 28575 ft 496 kts 121°
2026-04-30 21:38 45.46275 23.63847 27897 ft 494 kts 121°
2026-04-30 21:38 45.44427 23.67917 27478 ft 485 kts 121°
2026-04-30 21:38 45.42605 23.71927 27042 ft 480 kts 120°
2026-04-30 21:38 45.40788 23.75920 26589 ft 476 kts 120°
2026-04-30 21:39 45.39014 23.79816 26148 ft 472 kts 120°
2026-04-30 21:39 45.37230 23.83728 25687 ft 469 kts 120°
2026-04-30 21:39 45.35436 23.87655 25221 ft 465 kts 120°
2026-04-30 21:39 45.33695 23.91463 24775 ft 461 kts 120°
2026-04-30 21:40 45.31949 23.95274 24297 ft 457 kts 120°
2026-04-30 21:40 45.30220 23.99043 23841 ft 453 kts 120°
2026-04-30 21:40 45.28511 24.02766 23314 ft 449 kts 120°
2026-04-30 21:40 45.26816 24.06454 22849 ft 444 kts 120°
2026-04-30 21:41 45.25131 24.10116 22384 ft 439 kts 120°
2026-04-30 21:41 45.23465 24.13730 21929 ft 434 kts 120°
2026-04-30 21:41 45.21822 24.17292 21481 ft 430 kts 120°
2026-04-30 21:41 45.20217 24.20766 21055 ft 426 kts 120°
2026-04-30 21:42 45.18576 24.24314 20586 ft 422 kts 120°
2026-04-30 21:42 45.16967 24.27788 20147 ft 419 kts 120°
2026-04-30 21:42 45.15387 24.31193 19712 ft 416 kts 120°
2026-04-30 21:42 45.13802 24.34606 19268 ft 413 kts 120°
2026-04-30 21:43 45.12227 24.37995 18820 ft 410 kts 120°
2026-04-30 21:43 45.10661 24.41360 18348 ft 408 kts 120°
2026-04-30 21:43 45.09101 24.44706 17883 ft 404 kts 120°
2026-04-30 21:43 45.07557 24.48015 17436 ft 401 kts 120°
2026-04-30 21:44 45.06020 24.51305 17006 ft 398 kts 120°
2026-04-30 21:44 45.04495 24.54567 16566 ft 395 kts 120°
2026-04-30 21:44 45.02985 24.57793 16136 ft 392 kts 120°
2026-04-30 21:44 45.01483 24.60998 15700 ft 389 kts 120°
2026-04-30 21:45 44.99996 24.64165 15277 ft 387 kts 120°
2026-04-30 21:45 44.98507 24.67335 14844 ft 384 kts 120°
2026-04-30 21:45 44.97049 24.70437 14425 ft 382 kts 120°
2026-04-30 21:45 44.95576 24.73564 13960 ft 379 kts 121°
2026-04-30 21:46 44.94121 24.76653 13503 ft 376 kts 121°
2026-04-30 21:46 44.92685 24.79703 13085 ft 372 kts 121°
2026-04-30 21:46 44.91252 24.82738 12633 ft 369 kts 122°
2026-04-30 21:46 44.89826 24.85746 12196 ft 366 kts 122°
2026-04-30 21:47 44.88414 24.88721 11757 ft 363 kts 122°
2026-04-30 21:47 44.87014 24.91671 11322 ft 360 kts 122°
2026-04-30 21:47 44.85631 24.94584 11073 ft 351 kts 122°
2026-04-30 21:47 44.84296 24.97392 10970 ft 337 kts 122°
2026-04-30 21:48 44.83037 25.00039 10848 ft 324 kts 122°
2026-04-30 21:48 44.81802 25.02634 10735 ft 312 kts 121°
2026-04-30 21:48 44.80613 25.05131 10627 ft 301 kts 121°
2026-04-30 21:48 44.79467 25.07535 10537 ft 290 kts 121°
2026-04-30 21:49 44.78359 25.09854 10428 ft 280 kts 121°
2026-04-30 21:49 44.77286 25.12103 10257 ft 277 kts 121°
2026-04-30 21:49 44.76211 25.14372 9873 ft 278 kts 119°
2026-04-30 21:49 44.75248 25.16721 9536 ft 275 kts 114°
2026-04-30 21:50 44.74457 25.19148 9286 ft 270 kts 110°
2026-04-30 21:50 44.73746 25.21543 9046 ft 266 kts 109°
2026-04-30 21:50 44.73039 25.23950 8787 ft 263 kts 109°
2026-04-30 21:50 44.72342 25.26320 8522 ft 261 kts 109°
2026-04-30 21:51 44.71644 25.28679 8255 ft 260 kts 109°
2026-04-30 21:51 44.70950 25.31021 7995 ft 258 kts 110°
2026-04-30 21:51 44.70260 25.33343 7723 ft 256 kts 110°
2026-04-30 21:51 44.69573 25.35650 7450 ft 255 kts 110°
2026-04-30 21:52 44.68890 25.37941 7198 ft 253 kts 110°
2026-04-30 21:52 44.68205 25.40222 6929 ft 252 kts 109°
2026-04-30 21:52 44.67524 25.42497 6652 ft 251 kts 109°
2026-04-30 21:52 44.66848 25.44761 6364 ft 250 kts 109°
2026-04-30 21:53 44.66175 25.47012 6101 ft 248 kts 109°
2026-04-30 21:53 44.65515 25.49218 5834 ft 247 kts 109°
2026-04-30 21:53 44.64849 25.51438 5560 ft 246 kts 109°
2026-04-30 21:53 44.64187 25.53643 5287 ft 244 kts 109°
2026-04-30 21:54 44.63526 25.55846 5032 ft 243 kts 109°
2026-04-30 21:54 44.62867 25.58040 4743 ft 242 kts 109°
2026-04-30 21:54 44.62213 25.60217 4466 ft 242 kts 110°
2026-04-30 21:54 44.61558 25.62394 4202 ft 241 kts 110°
2026-04-30 21:55 44.60903 25.64566 3951 ft 241 kts 110°
2026-04-30 21:55 44.60250 25.66732 3673 ft 241 kts 110°
2026-04-30 21:55 44.59596 25.68897 3398 ft 241 kts 110°
2026-04-30 21:55 44.58949 25.71041 3137 ft 241 kts 111°
2026-04-30 21:56 44.58291 25.73200 2876 ft 240 kts 110°
2026-04-30 21:56 44.57638 25.75354 2644 ft 237 kts 111°
2026-04-30 21:56 44.57007 25.77433 2615 ft 224 kts 111°
2026-04-30 21:56 44.56411 25.79390 2553 ft 213 kts 110°
2026-04-30 21:57 44.55968 25.81317 2487 ft 202 kts 99°
2026-04-30 21:57 44.55815 25.83294 2493 ft 204 kts 89°
2026-04-30 21:57 44.55889 25.85290 2488 ft 204 kts 82°
2026-04-30 21:57 44.56064 25.87266 2501 ft 204 kts 81°
2026-04-30 21:58 44.56183 25.88581 2538 ft 204 kts 81°
2026-04-30 21:58 44.56392 25.91160 2493 ft 191 kts 82°
2026-04-30 21:58 44.56520 25.92919 2447 ft 170 kts 82°
2026-04-30 21:58 44.56625 25.94483 2362 ft 154 kts 85°
2026-04-30 21:59 44.56602 25.95494 2272 ft 153 kts 95°
2026-04-30 21:59 44.56445 25.96963 2066 ft 152 kts 97°
2026-04-30 21:59 44.56264 25.98393 1756 ft 151 kts 97°
2026-04-30 22:00 44.56032 26.01330 1181 ft 152 kts 90°
2026-04-30 22:00 44.56219 26.04279 733 ft 152 kts 83°
2026-04-30 22:00 44.56323 26.05754 558 ft 151 kts 84°
2026-04-30 22:01 44.56436 26.07211 409 ft 151 kts 84°
2026-04-30 22:01 44.56541 26.08649 331 ft 133 kts 84°
2026-04-30 22:01 44.56614 26.09627 325 ft 69 kts 84°
2026-04-30 22:01 44.56651 26.10115 325 ft 46 kts 84°
2026-04-30 22:02 44.56683 26.10546 324 ft 35 kts 84°
2026-04-30 22:02 44.56730 26.10745 323 ft 19 kts 22°
2026-04-30 22:02 44.56864 26.10744 320 ft 16 kts 353°
2026-04-30 22:02 44.56981 26.10710 322 ft 19 kts 328°
2026-04-30 22:03 44.57061 26.10547 321 ft 22 kts 285°
2026-04-30 22:03 44.57054 26.10318 321 ft 25 kts 264°
2026-04-30 22:03 44.57041 26.10128 320 ft 15 kts 264°
2026-04-30 22:03 44.57030 26.09987 321 ft 11 kts 263°
2026-04-30 22:04 44.57074 26.09906 321 ft 13 kts 341°
2026-04-30 22:04 44.57175 26.09885 320 ft 17 kts 354°
2026-04-30 22:04 44.57417 26.09850 323 ft 16 kts 353°
2026-04-30 22:05 44.57529 26.09832 324 ft 17 kts 352°
2026-04-30 22:05 44.57581 26.09728 323 ft 14 kts 265°
2026-04-30 22:05 44.57575 26.09567 327 ft 18 kts 265°
2026-04-30 22:05 44.57561 26.09368 325 ft 22 kts 264°
2026-04-30 22:06 44.57547 26.09184 324 ft 20 kts 264°
2026-04-30 22:06 44.57520 26.08832 329 ft 18 kts 264°
2026-04-30 22:06 44.57506 26.08646 330 ft 16 kts 264°
2026-04-30 22:07 44.57493 26.08523 328 ft 13 kts 246°
2026-04-30 22:07 44.57402 26.08478 326 ft 17 kts 175°
2026-04-30 22:07 44.57298 26.08493 325 ft 0 kts 174°
2026-04-30 22:07 44.57264 26.08497 326 ft 11 kts 183°
2026-04-30 22:08 44.57228 26.08408 325 ft 12 kts 250°
2026-04-30 22:08 44.57174 26.08373 322 ft 7 kts 184°
2026-04-30 22:08 44.57135 26.08373 321 ft 1 kts 179°
2026-04-30 22:08 44.57121 26.08368 324 ft 4 kts 203°
2026-04-30 22:09 44.57099 26.08335 322 ft 6 kts 255°
2026-04-30 22:09 44.57094 26.08292 322 ft 4 kts 262°
2026-04-30 22:09 44.57092 26.08276 322 ft 0 kts 262°
2026-04-30 22:10 44.57092 26.08275 322 ft 0 kts 262°